FW8255 Weather Reports


time (UTC)temp
F
wind
direction
speed
knots
gust
knots
rain 1hr
in
rain 24hr
in
rain mn
in
humidity
%
barometer
mb
20260510130641 48 325 3.5 5.2 0.00 0.00 0.00 72 1016.1
20260510130139 48 349 5.2 7.8 0.00 0.00 0.00 71 1016.1
20260510125635 48 39 2.6 7.0 0.00 0.00 0.00 73 1015.9
20260510125131 48 335 3.5 13.0 0.00 0.00 0.00 73 1015.7
20260510124629 48 11 2.6 7.8 0.00 0.00 0.00 76 1016.0
20260510124125 48 9 2.6 5.2 0.00 0.00 0.00 78 1015.7
20260510123620 47 0 7.8 11.3 0.00 0.00 0.00 79 1015.4
20260510123116 48 7 4.3 7.8 0.00 0.00 0.00 80 1015.8
20260510122607 48 0 0.9 2.6 0.00 0.00 0.00 83 1015.6
20260510122103 48 8 1.7 5.2 0.00 0.00 0.00 83 1015.4
20260510121600 47 337 4.3 8.7 0.00 0.00 0.00 83 1015.4
20260510121057 47 13 7.8 8.7 0.00 0.00 0.00 84 1015.3
20260510120555 47 12 4.3 6.1 0.00 0.00 0.00 85 1015.3
20260510120050 48 344 3.5 5.2 0.00 0.00 0.00 86 1015.2
20260510115547 48 346 1.7 5.2 0.00 0.00 0.00 87 1014.7
20260510115044 48 346 2.6 5.2 0.00 0.00 0.00 88 1014.7
20260510114540 48 334 2.6 6.1 0.00 0.00 0.00 88 1014.6
20260510114036 47 335 2.6 5.2 0.00 0.00 0.00 89 1014.5
20260510113531 47 334 2.6 7.0 0.00 0.00 0.00 90 1014.2
20260510113029 47 357 3.5 7.0 0.00 0.00 0.00 90 1014.4
20260510112526 47 3 2.6 5.2 0.00 0.00 0.00 91 1014.2
20260510112022 47 343 3.5 5.2 0.00 0.00 0.00 91 1014.1
20260510111519 47 322 0.9 2.6 0.00 0.00 0.00 91 1014.0
20260510111015 47 327 1.7 1.7 0.00 0.00 0.00 92 1013.9
20260510110511 47 322 0.9 4.3 0.00 0.00 0.00 92 1013.6
20260510110008 47 332 1.7 2.6 0.00 0.00 0.00 92 1013.7
20260510105502 47 16 2.6 5.2 0.00 0.00 0.00 92 1013.6
20260510104958 47 355 1.7 6.1 0.00 0.00 0.00 92 1013.4
20260510104455 47 330 0.0 2.6 0.00 0.00 0.00 92 1013.3
20260510103951 47 359 3.5 5.2 0.00 0.00 0.00 92 1013.3
20260510103449 47 328 0.9 5.2 0.00 0.00 0.00 92 1012.9
20260510102944 47 317 0.9 1.7 0.00 0.00 0.00 92 1012.9
20260510102440 47 341 2.6 4.3 0.00 0.00 0.00 92 1012.9
20260510101937 47 14 1.7 2.6 0.00 0.00 0.00 92 1013.0
20260510101435 47 315 0.9 5.2 0.00 0.00 0.00 91 1012.5
20260510100933 47 334 0.9 1.7 0.00 0.00 0.00 91 1012.5
20260510100429 48 320 2.6 4.3 0.00 0.00 0.00 91 1012.7
20260510095925 48 353 3.5 4.3 0.00 0.00 0.00 92 1012.5
20260510095421 48 320 1.7 2.6 0.00 0.00 0.00 92 1012.6
20260510094920 47 333 0.9 1.7 0.00 0.00 0.00 92 1012.6
20260510094415 47 331 0.0 0.0 0.00 0.00 0.00 92 1012.7
20260510093911 47 338 0.9 2.6 0.00 0.00 0.00 92 1012.5
20260510093407 47 330 0.9 0.9 0.00 0.00 0.00 92 1012.2
20260510092903 47 330 0.0 0.0 0.00 0.00 0.00 92 1012.3
20260510092401 46 330 0.0 0.0 0.00 0.00 0.00 92 1012.2
20260510091855 46 330 0.0 0.0 0.00 0.00 0.00 92 1011.9
20260510091353 46 331 0.0 0.0 0.00 0.00 0.00 93 1012.0
20260510090849 46 332 0.9 0.9 0.00 0.00 0.00 94 1011.7
20260510090345 46 332 0.0 0.9 0.00 0.00 0.00 95 1011.5
20260510085841 46 332 0.0 0.9 0.00 0.00 0.00 95 1011.6
20260510085336 46 333 0.0 0.0 0.00 0.00 0.00 95 1011.5
20260510084832 46 333 0.0 0.9 0.00 0.00 0.00 94 1011.4
20260510084329 46 334 0.0 0.0 0.00 0.00 0.00 94 1011.3
20260510083826 46 333 0.9 0.9 0.00 0.00 0.00 94 1011.4
20260510083323 46 334 0.0 0.0 0.00 0.00 0.00 93 1011.3
20260510082818 47 334 0.0 0.0 0.00 0.00 0.00 92 1011.5
20260510082316 47 334 0.0 0.0 0.00 0.00 0.00 91 1011.1
20260510081814 47 334 0.0 0.0 0.00 0.00 0.00 90 1011.4
20260510081310 48 335 0.9 0.9 0.00 0.00 0.00 89 1011.1
20260510080807 48 334 0.0 0.9 0.00 0.00 0.00 87 1011.0
20260510080302 49 332 0.9 0.9 0.00 0.00 0.00 85 1011.0
20260510075759 49 326 0.0 0.0 0.00 0.00 0.00 85 1010.8
20260510075256 49 330 0.0 0.9 0.00 0.00 0.00 84 1010.8
20260510074753 49 326 0.0 1.7 0.00 0.00 0.00 84 1010.6
20260510074250 49 338 0.9 4.3 0.00 0.00 0.00 83 1010.6
20260510073746 49 327 0.9 2.6 0.00 0.00 0.00 84 1010.4
20260510073242 49 335 2.6 2.6 0.00 0.00 0.00 84 1010.5
20260510072737 50 328 1.7 2.6 0.00 0.00 0.00 83 1010.5
20260510072234 50 337 0.9 1.7 0.00 0.00 0.00 83 1010.4
20260510071731 50 349 3.5 5.2 0.00 0.00 0.00 82 1010.5
20260510071228 50 308 3.5 6.1 0.00 0.00 0.00 83 1010.3
20260510070726 50 348 3.5 6.1 0.00 0.00 0.00 84 1010.2
20260510070223 50 5 2.6 5.2 0.00 0.00 0.00 86 1010.2
20260510065718 50 336 4.3 7.0 0.00 0.00 0.00 88 1009.9
20260510065214 50 349 1.7 5.2 0.00 0.00 0.00 94 1009.8
20260510064711 49 9 4.3 7.0 0.00 0.00 0.00 97 1009.8
20260510064209 50 9 3.5 6.1 0.00 0.00 0.00 99 1009.9
20260510063705 50 0 2.6 7.0 0.00 0.00 0.00 99 1009.8
20260510063201 50 2 3.5 6.1 0.00 0.00 0.00 99 1009.6
20260510062658 50 345 0.9 6.1 0.00 0.00 0.00 99 1009.8
20260510062154 51 14 1.7 5.2 0.00 0.00 0.00 99 1009.8
20260510061649 51 339 2.6 7.8 0.00 0.00 0.00 99 1009.8
20260510061147 53 329 4.3 7.0 0.00 0.00 0.00 99 1009.6
20260510060643 53 320 0.0 0.9 0.00 0.00 0.00 99 1009.5
20260510060140 53 325 1.7 1.7 0.00 0.00 0.00 99 1009.3
20260510055636 53 317 0.0 0.0 0.00 0.00 0.00 99 1009.5
20260510055134 53 319 0.0 0.0 0.00 0.00 0.00 99 1009.1
20260510054629 53 320 0.0 0.0 0.00 0.00 0.00 99 1009.4
20260510054125 53 319 0.0 0.9 0.00 0.00 0.00 99 1009.2
20260510053624 53 319 0.0 0.0 0.00 0.00 0.00 99 1009.2
20260510053121 53 302 0.0 0.9 0.00 0.00 0.00 99 1009.3
20260510052617 53 316 0.0 0.0 0.00 0.00 0.00 99 1009.3
20260510052114 53 313 0.0 0.0 0.00 0.00 0.00 99 1009.2
20260510051609 53 322 0.0 0.9 0.00 0.00 0.00 99 1009.1
20260510051107 53 353 0.9 2.6 0.00 0.00 0.00 99 1009.0
20260510050604 53 324 0.9 1.7 0.00 0.00 0.00 99 1008.8
20260510050100 53 315 0.0 0.0 0.00 0.00 0.00 99 1008.5
20260510045558 53 314 0.0 0.9 0.00 0.00 0.00 99 1008.2
20260510045053 53 311 0.0 0.9 0.00 0.00 0.00 99 1008.1
20260510044550 53 310 0.0 0.9 0.00 0.00 0.00 99 1008.0
20260510044048 53 304 0.9 1.7 0.00 0.00 0.00 99 1007.8
20260510043543 53 315 0.0 0.9 0.00 0.00 0.00 99 1007.9
20260510043039 53 290 0.9 0.9 0.00 0.00 0.00 99 1007.9
20260510042533 53 306 0.0 0.9 0.00 0.00 0.00 99 1008.0
20260510042028 53 301 0.0 0.9 0.00 0.00 0.00 99 1007.8
20260510041526 53 304 0.0 1.7 0.00 0.00 0.00 99 1007.9
20260510041023 53 286 0.9 1.7 0.00 0.00 0.00 99 1007.9
20260510040519 53 311 0.0 0.9 0.00 0.00 0.00 99 1007.9
20260510040015 53 314 0.0 0.0 0.00 0.51 0.51 99 1007.8
20260510035512 54 302 0.9 0.9 0.00 0.51 0.51 99 1007.8
20260510035011 54 311 0.0 0.9 0.00 0.51 0.51 99 1007.9
20260510034510 54 314 0.0 0.0 0.00 0.51 0.51 98 1007.7
20260510034006 54 315 0.0 1.7 0.12 0.51 0.51 98 1007.7
20260510033502 54 330 0.9 0.9 0.31 0.51 0.51 98 1007.7
20260510033001 54 257 3.5 6.1 0.19 0.49 0.49 99 1008.2
20260510032457 54 305 0.0 1.7 0.00 0.46 0.46 99 1007.9
20260510031957 54 251 0.9 1.7 0.05 0.46 0.46 99 1007.9
20260510031452 54 254 2.6 5.2 0.05 0.46 0.46 99 1007.9
20260510030949 54 245 1.7 5.2 0.07 0.45 0.45 99 1008.3
20260510030444 54 313 0.0 0.9 0.07 0.45 0.45 99 1008.1
20260510025942 54 272 1.7 1.7 0.00 0.44 0.44 99 1007.9
20260510025439 54 305 0.0 1.7 0.00 0.44 0.44 99 1007.8
20260510024936 54 287 1.7 1.7 0.00 0.44 0.44 99 1007.6
20260510024433 54 308 0.9 1.7 0.00 0.44 0.44 99 1008.2
20260510023928 54 305 0.9 0.9 0.00 0.44 0.44 99 1007.8
20260510023425 54 315 0.9 0.9 0.00 0.44 0.44 99 1007.6
20260510022922 54 283 1.7 1.7 0.00 0.44 0.44 99 1007.5
20260510022421 54 312 0.0 1.7 0.12 0.44 0.44 99 1008.0
20260510021920 54 225 5.2 7.0 0.31 0.44 0.44 99 1008.3
20260510021419 54 268 4.3 7.0 0.19 0.42 0.42 99 1008.8
20260510020915 54 320 0.0 4.3 0.00 0.39 0.39 99 1008.0
20260510020410 54 311 0.0 0.9 0.00 0.39 0.39 99 1007.5
20260510015906 53 316 0.0 0.9 0.00 0.39 0.39 99 1007.1
20260510015402 53 311 0.0 1.7 0.00 0.39 0.39 99 1007.2
20260510014857 53 330 0.0 0.0 0.00 0.39 0.39 99 1007.2
20260510014355 53 316 0.0 0.0 0.00 0.39 0.39 99 1007.2
20260510013851 53 315 0.0 0.0 0.00 0.39 0.39 99 1007.0
20260510013346 53 352 0.0 0.0 0.00 0.39 0.39 99 1007.0
20260510012841 53 322 0.0 0.0 0.00 0.39 0.39 99 1007.0
20260510012341 53 310 0.0 0.0 0.00 0.39 0.39 99 1007.1
20260510011837 53 328 0.0 0.0 0.00 0.39 0.39 99 1006.9
20260510011332 54 328 0.0 0.0 0.00 0.39 0.39 99 1006.9
20260510010829 54 319 0.0 0.0 0.00 0.39 0.39 99 1006.7
20260510010326 54 317 0.0 0.0 0.00 0.39 0.39 99 1006.7
20260510005822 54 316 0.0 0.0 0.00 0.39 0.39 99 1006.8
20260510005319 54 316 0.0 0.0 0.00 0.39 0.39 99 1006.9
20260510004817 54 327 0.0 0.0 0.00 0.39 0.39 98 1006.6
20260510004314 54 310 0.0 0.9 0.00 0.39 0.39 98 1006.6
20260510003812 55 317 0.0 0.0 0.00 0.39 0.39 98 1006.6
20260510003308 55 307 0.0 0.9 0.00 0.39 0.39 97 1006.9
20260510002807 55 290 0.9 1.7 0.00 0.39 0.39 97 1006.7
20260510002307 55 303 0.9 1.7 0.00 0.39 0.39 96 1006.7
20260510001801 55 253 0.9 1.7 0.00 0.39 0.39 96 1006.6
20260510001259 55 304 1.7 5.2 0.00 0.39 0.39 96 1006.7
20260510000754 55 283 2.6 6.1 0.00 0.39 0.39 96 1006.9
20260510000253 55 261 2.6 6.1 0.00 0.39 0.39 96 1006.6
20260509235749 55 265 1.7 6.1 0.00 0.39 0.39 96 1006.6
20260509235246 55 287 1.7 4.3 0.05 0.39 0.39 96 1006.8
20260509234741 55 299 1.7 4.3 0.07 0.38 0.38 96 1006.8
20260509234238 55 297 1.7 6.1 0.12 0.38 0.38 96 1006.8
20260509233737 55 263 7.8 9.6 0.12 0.37 0.37 96 1006.9
20260509233234 55 240 5.2 9.6 0.12 0.36 0.36 95 1007.2
20260509232730 55 254 3.5 4.3 0.12 0.35 0.35 96 1007.0
20260509232227 55 291 1.7 5.2 0.24 0.34 0.34 96 1006.6
20260509231724 55 277 6.1 7.8 0.24 0.33 0.33 95 1006.9
20260509231221 56 310 3.5 9.6 0.31 0.30 0.30 95 1006.8
20260509230719 57 321 4.3 7.8 0.42 0.28 0.28 93 1007.1
20260509230215 58 292 7.0 15.6 0.47 0.25 0.25 91 1007.1
20260509225710 63 354 9.6 13.0 0.17 0.20 0.20 80 1006.3
20260509225206 68 240 6.1 7.8 0.00 0.17 0.17 60 1005.1
20260509224702 68 238 7.8 9.6 0.00 0.17 0.17 60 1004.5
20260509224159 68 232 5.2 9.6 0.00 0.17 0.17 60 1004.6
20260509223656 68 261 2.6 6.1 0.00 0.17 0.17 60 1004.1
20260509223153 68 242 9.6 11.3 0.00 0.17 0.17 58 1004.0
20260509222650 69 206 7.0 14.8 0.00 0.17 0.17 57 1003.9
20260509222146 69 245 4.3 12.2 0.00 0.17 0.17 57 1004.1
20260509221642 69 252 4.3 6.1 0.00 0.17 0.17 58 1004.1
20260509221137 69 192 2.6 6.1 0.00 0.17 0.17 57 1004.1
20260509220634 69 246 2.6 13.0 0.00 0.17 0.17 59 1004.2
20260509220130 69 231 7.8 11.3 0.00 0.17 0.17 58 1004.0
20260509215626 69 273 1.7 9.6 0.00 0.17 0.17 59 1004.1
20260509215123 69 239 1.7 13.9 0.00 0.17 0.17 60 1004.2
20260509214620 69 215 4.3 9.6 0.00 0.17 0.17 59 1004.3
20260509214117 70 313 4.3 17.4 0.00 0.17 0.17 59 1004.2
20260509213613 70 271 2.6 9.6 0.00 0.17 0.17 58 1004.2
20260509213109 70 308 6.1 13.0 0.00 0.17 0.17 57 1004.0
20260509212607 70 247 5.2 13.0 0.00 0.17 0.17 58 1003.9
20260509212104 71 227 7.8 12.2 0.00 0.17 0.17 57 1004.1
20260509211600 70 164 6.1 14.8 0.00 0.17 0.17 59 1003.8
20260509211056 70 203 7.8 13.9 0.00 0.17 0.17 59 1004.1
20260509210553 70 252 8.7 12.2 0.00 0.17 0.17 60 1004.0
20260509210050 70 257 13.0 19.1 0.00 0.17 0.17 57 1004.4
20260509205544 70 221 7.0 12.2 0.00 0.17 0.17 60 1004.3
20260509205039 70 275 2.6 12.2 0.00 0.17 0.17 60 1004.6
20260509204536 70 222 3.5 6.1 0.00 0.17 0.17 60 1004.5
20260509204032 70 205 3.5 7.0 0.00 0.17 0.17 60 1004.5
20260509203527 69 123 3.5 13.9 0.00 0.17 0.17 61 1004.9
20260509203027 69 243 8.7 20.9 0.00 0.17 0.17 60 1004.9
20260509202521 69 240 4.3 11.3 0.00 0.17 0.17 62 1004.8
20260509202017 68 248 7.8 12.2 0.00 0.17 0.17 64 1005.1
20260509201512 68 216 8.7 13.0 0.00 0.17 0.17 62 1005.0
20260509201010 69 158 2.6 11.3 0.00 0.17 0.17 63 1005.1
20260509200504 68 212 3.5 13.9 0.00 0.17 0.17 63 1005.1
20260509200001 69 92 4.3 8.7 0.00 0.17 0.17 64 1005.4
20260509195456 69 238 6.1 9.6 0.00 0.17 0.17 62 1005.3
20260509194955 68 273 3.5 8.7 0.00 0.17 0.17 62 1005.5
20260509194451 69 282 4.3 7.8 0.00 0.17 0.17 60 1005.3
20260509193949 68 238 7.8 13.0 0.00 0.17 0.17 60 1005.5
20260509193448 68 252 10.4 12.2 0.00 0.17 0.17 60 1005.5
20260509192945 68 263 10.4 15.6 0.00 0.17 0.17 60 1005.5
20260509192442 68 218 6.1 8.7 0.00 0.17 0.17 63 1005.7
20260509191937 69 264 3.5 7.0 0.00 0.17 0.17 64 1005.8
20260509191432 68 282 4.3 5.2 0.00 0.17 0.17 63 1005.5
20260509190928 68 235 3.5 12.2 0.00 0.17 0.17 64 1005.9
20260509190426 68 275 2.6 11.3 0.00 0.17 0.17 65 1006.1
20260509185923 67 181 4.3 11.3 0.00 0.17 0.17 66 1006.3
20260509185420 66 243 4.3 8.7 0.00 0.17 0.17 66 1006.1
20260509184917 66 226 2.6 11.3 0.00 0.17 0.17 66 1006.3
20260509184414 67 241 10.4 13.9 0.00 0.17 0.17 65 1006.4
20260509183911 66 265 9.6 11.3 0.00 0.17 0.17 66 1006.2
20260509183405 67 259 10.4 13.0 0.00 0.17 0.17 64 1006.3
20260509182902 66 249 5.2 7.0 0.00 0.17 0.17 67 1006.2
20260509182359 66 262 7.8 9.6 0.00 0.17 0.17 66 1006.1
20260509181856 65 254 7.8 12.2 0.00 0.17 0.17 67 1006.2
20260509181353 66 116 3.5 12.2 0.00 0.17 0.17 67 1006.2
20260509180851 67 95 4.3 6.1 0.00 0.17 0.17 67 1006.2
20260509180346 67 180 3.5 9.6 0.00 0.17 0.17 66 1006.2
20260509175843 67 262 6.1 7.8 0.00 0.17 0.17 67 1006.2
20260509175340 66 251 4.3 7.0 0.00 0.17 0.17 66 1006.3
20260509174835 65 261 10.4 12.2 0.00 0.17 0.17 67 1006.2
20260509174332 66 235 8.7 9.6 0.00 0.17 0.17 65 1006.5
20260509173827 65 280 5.2 8.7 0.00 0.17 0.17 66 1006.4
20260509173323 64 217 3.5 7.0 0.00 0.17 0.17 68 1006.4
20260509172820 64 248 7.8 13.9 0.00 0.17 0.17 68 1006.8
20260509172316 63 215 7.8 13.0 0.00 0.17 0.17 68 1006.7
20260509171812 64 216 6.1 11.3 0.00 0.17 0.17 69 1006.5
20260509171308 64 235 7.0 8.7 0.00 0.17 0.17 69 1006.5
20260509170805 64 222 7.8 9.6 0.00 0.17 0.17 66 1006.6
20260509170301 64 267 5.2 7.8 0.00 0.17 0.17 68 1006.4
20260509165800 64 229 2.6 6.1 0.00 0.17 0.17 70 1006.5
20260509165255 63 174 2.6 9.6 0.00 0.17 0.17 71 1006.3
20260509164751 63 252 7.8 8.7 0.00 0.17 0.17 69 1006.1
20260509164248 64 227 2.6 11.3 0.00 0.17 0.17 71 1006.4
20260509163745 63 249 3.5 6.1 0.00 0.17 0.17 69 1006.4
20260509163241 62 252 6.1 9.6 0.00 0.17 0.17 72 1006.6
20260509162740 62 243 8.7 11.3 0.00 0.17 0.17 73 1006.7
20260509162233 61 245 9.6 11.3 0.00 0.17 0.17 74 1006.9
20260509161729 61 275 9.6 12.2 0.00 0.17 0.17 74 1007.0
20260509161226 61 232 2.6 7.8 0.00 0.17 0.17 74 1007.1
20260509160721 61 263 6.1 9.6 0.00 0.17 0.17 73 1006.9
20260509160218 61 286 7.8 8.7 0.00 0.17 0.17 72 1006.9
20260509155713 62 245 6.1 11.3 0.00 0.17 0.17 73 1007.0
20260509155210 62 240 3.5 7.0 0.00 0.17 0.17 74 1007.0
20260509154706 61 253 7.0 8.7 0.00 0.17 0.17 73 1007.0
20260509154203 60 254 5.2 6.1 0.00 0.17 0.17 79 1007.0
20260509153700 60 232 6.1 8.7 0.00 0.17 0.17 80 1007.1
20260509153156 60 231 6.1 8.7 0.00 0.17 0.17 78 1007.1
20260509152652 60 255 4.3 8.7 0.00 0.17 0.17 82 1007.1
20260509152149 60 238 5.2 11.3 0.00 0.17 0.17 81 1007.1
20260509151646 61 230 7.8 8.7 0.00 0.17 0.17 79 1007.0
20260509151143 59 291 2.6 7.0 0.00 0.17 0.17 84 1007.0
20260509150641 59 262 6.1 8.7 0.00 0.17 0.17 86 1006.9
20260509150139 59 249 3.5 8.7 0.00 0.17 0.17 86 1006.8
20260509145635 59 259 4.3 6.1 0.00 0.17 0.17 86 1007.1
20260509145130 58 229 9.6 11.3 0.00 0.17 0.17 88 1006.9
20260509144627 57 303 1.7 4.3 0.00 0.17 0.17 90 1007.0
20260509144124 58 254 6.1 7.8 0.00 0.17 0.17 90 1006.9
20260509143621 57 242 4.3 7.0 0.00 0.17 0.17 90 1007.1
20260509143119 57 329 2.6 4.3 0.00 0.17 0.17 91 1007.0
20260509142614 57 280 1.7 4.3 0.00 0.17 0.17 91 1007.0
20260509142111 57 271 2.6 5.2 0.00 0.17 0.17 93 1006.8
20260509141607 56 280 3.5 7.0 0.00 0.17 0.17 94 1006.8
20260509141103 55 234 6.1 7.8 0.00 0.17 0.17 94 1007.0
20260509140600 55 244 4.3 7.0 0.00 0.17 0.17 95 1007.2
20260509140058 55 260 2.6 4.3 0.00 0.17 0.17 95 1006.9
20260509135555 55 231 2.6 7.0 0.00 0.17 0.17 96 1007.0
20260509135053 55 272 1.7 4.3 0.00 0.17 0.17 96 1007.1
20260509134549 55 310 0.0 2.6 0.00 0.17 0.17 97 1007.1
20260509134047 55 269 2.6 4.3 0.00 0.17 0.17 97 1007.1
20260509133544 55 2 0.9 4.3 0.00 0.17 0.17 97 1006.8
20260509133042 55 235 4.3 6.1 0.00 0.17 0.17 97 1007.0
20260509132540 54 263 2.6 4.3 0.00 0.17 0.17 98 1007.4
20260509132038 54 252 2.6 7.0 0.00 0.17 0.17 99 1007.2
20260509131533 54 299 2.6 7.8 0.00 0.17 0.17 99 1007.1
20260509131030 54 233 6.1 7.0 0.00 0.17 0.17 99 1007.1